El Paso, TX

11:18 PM MDT on September 19, 2017 (GMT -0600)
El Paso International

Weather History for KELP - February, 2013

Change the Weather History Date:

Saturday, February 9, 2013

  Actual Average Record
Temperature  
Mean Temperature 53 °F 49 °F  
Max Temperature 64 °F 62 °F 78 °F (1957)
Min Temperature 41 °F 36 °F 11 °F (1974)
Degree Days  
Heating Degree Days 12 16  
Month to date heating degree days 112 153  
Since 1 July heating degree days 1601 1838  
Cooling Degree Days 0 0  
Month to date cooling degree days 0 0  
Year to date cooling degree days 0 0  
Growing Degree Days 3 (Base 50)    
Moisture  
Dew Point 15 °F    
Average Humidity 26    
Maximum Humidity 40    
Minimum Humidity 12    
Precipitation  
Precipitation 0.00 in 0.02 in 0.29 in (1894)
Month to date precipitation 0.00 0.16  
Year to date precipitation 0.30 0.56  
Snow  
Snow 0.00 in - - ()
Month to date snowfall 0.0  
Since 1 July snowfall 3.1  
Snow Depth 0.00 in    
Sea Level Pressure  
Sea Level Pressure 29.70 in    
Wind  
Wind Speed 17 mph (West)    
Max Wind Speed 40 mph    
Max Gust Speed 52 mph    
Visibility 8 miles    
Events      
T = Trace of Precipitation, MM = Missing Value Source: NWS Daily Summary

Daily Weather History Graph

Daily Weather History Graph

Search for Another Location

Airport or City:

Trip Planner

Search our weather history database for the weather conditions in past years. The results will help you decide how hot, cold, wet, or windy it might be!

Date:

Astronomy

Feb. 09, 2013 Rise Set
Actual Time 6:52 AM MST 5:47 PM MST
Civil Twilight 6:27 AM MST 6:12 PM MST
Nautical Twilight 5:58 AM MST 6:41 PM MST
Astronomical Twilight 5:30 AM MST 7:09 PM MST
Moon 6:06 AM MST (2/9) 5:30 PM MST (2/9)
Length of Visible Light 11h 45m
Length of Day
10h 54m
Waning Crescent, 0% of the Moon is Illuminated
Feb 9
Waning Crescent
Feb 10
New
Feb 17
First Quarter
Feb 25
Full
Mar 4
Last Quarter

Hourly Weather History & Observations

Time (MST) Temp. Windchill Dew Point Humidity Pressure Visibility Wind Dir Wind Speed Gust Speed Precip Events Conditions
12:51 AM 50.0 °F - 12.9 °F 23% 29.72 in 10.0 mi South 5.8 mph - N/A   Mostly Cloudy
1:51 AM 50.0 °F - 18.0 °F 28% 29.69 in 10.0 mi SSE 9.2 mph - N/A   Mostly Cloudy
2:51 AM 48.9 °F - 10.9 °F 22% 29.67 in 10.0 mi SSE 10.4 mph - N/A   Scattered Clouds
3:51 AM 46.9 °F - 12.0 °F 24% 29.65 in 10.0 mi Calm Calm - N/A   Mostly Cloudy
4:51 AM 46.0 °F - 16.0 °F 30% 29.64 in 10.0 mi Calm Calm - N/A   Mostly Cloudy
5:51 AM 45.0 °F - 19.9 °F 37% 29.65 in 10.0 mi Calm Calm - N/A   Overcast
6:51 AM 45.0 °F 41.8 °F 21.0 °F 39% 29.65 in 10.0 mi SSE 5.8 mph - N/A   Overcast
7:51 AM 50.0 °F - 18.0 °F 28% 29.66 in 10.0 mi SSW 10.4 mph 16.1 mph N/A   Scattered Clouds
8:51 AM 57.9 °F - 10.0 °F 15% 29.65 in 10.0 mi SW 18.4 mph 24.2 mph N/A   Scattered Clouds
9:51 AM 61.0 °F - 8.1 °F 12% 29.64 in 10.0 mi SW 24.2 mph 34.5 mph N/A   Partly Cloudy
10:51 AM 60.1 °F - 9.0 °F 13% 29.64 in 10.0 mi West 18.4 mph - N/A   Partly Cloudy
11:51 AM 62.1 °F - 12.0 °F 14% 29.61 in 10.0 mi WSW 23.0 mph 34.5 mph N/A   Clear
12:51 PM 62.1 °F - 19.0 °F 19% 29.60 in 3.0 mi West 29.9 mph 40.3 mph N/A   Widespread Dust
1:00 PM 60.8 °F - 19.4 °F 20% 29.72 in 2.0 mi West 31.1 mph 41.4 mph N/A   Widespread Dust
1:18 PM 60.8 °F - 15.8 °F 17% 29.72 in 1.5 mi West 35.7 mph 47.2 mph N/A   Widespread Dust
1:51 PM 61.0 °F - 16.0 °F 17% 29.60 in 1.5 mi West 38.0 mph 49.5 mph N/A   Widespread Dust
2:00 PM 60.8 °F - 15.8 °F 17% 29.71 in 2.0 mi West 35.7 mph 48.3 mph N/A   Widespread Dust
2:21 PM 59.0 °F - 15.8 °F 19% 29.72 in 4.0 mi West 29.9 mph 46.0 mph N/A   Widespread Dust
2:51 PM 55.9 °F - 21.0 °F 26% 29.63 in 4.0 mi WNW 26.5 mph 41.4 mph N/A   Widespread Dust
3:51 PM 51.1 °F - 21.0 °F 31% 29.70 in 5.0 mi WNW 25.3 mph 39.1 mph N/A   Widespread Dust
4:51 PM 50.0 °F - 19.9 °F 31% 29.72 in 8.0 mi WNW 24.2 mph 38.0 mph N/A   Partly Cloudy
5:51 PM 46.9 °F - 18.0 °F 32% 29.77 in 8.0 mi WNW 20.7 mph 29.9 mph N/A   Partly Cloudy
6:51 PM 46.0 °F 38.8 °F 12.0 °F 25% 29.80 in 10.0 mi WNW 18.4 mph 31.1 mph N/A   Partly Cloudy
7:51 PM 44.1 °F 35.2 °F 10.9 °F 26% 29.82 in 10.0 mi NW 23.0 mph 32.2 mph N/A   Partly Cloudy
8:51 PM 44.1 °F 35.7 °F 12.0 °F 27% 29.83 in 10.0 mi WNW 20.7 mph 31.1 mph N/A   Partly Cloudy
9:51 PM 43.0 °F 34.8 °F 12.9 °F 30% 29.84 in 10.0 mi WNW 18.4 mph 25.3 mph N/A   Clear
10:51 PM 42.1 °F 33.9 °F 14.0 °F 32% 29.86 in 10.0 mi West 17.3 mph 25.3 mph N/A   Clear
11:51 PM 41.0 °F 32.8 °F 15.1 °F 35% 29.84 in 10.0 mi West 16.1 mph 24.2 mph N/A   Clear